#timestamp,LO_Frequency,Hit,StdDev 
1624366815.8,286047001.5,N
1624366835.7,286047003.9,N
1624366855.5,286047001.4,N
1624366875.3,286047004.1,N
1624366895.2,286047003.6,N
1624366915.0,286047001.6,N
1624366915.9,286047001.6,N
1624366935.7,286047004.0,N
1624366955.6,286047001.7,N
1624366975.4,286047004.3,N
1624366995.3,286047003.9,N
1624367015.1,286047004.4,N
1624367016.0,286047004.4,N
1624367035.8,286047001.9,N
1624367055.7,286047001.5,N
1624367075.5,286047001.5,N
1624367095.3,286047003.9,N
1624367115.2,286047004.0,N
1624367135.0,286047003.7,N
1624367135.9,286047003.7,N
1624367155.8,286047004.0,Y
1624367175.6,286047000.0,P
1624367195.4,286046998.1,N
1624367215.3,286047001.1,N
1624367235.1,286046999.7,N
1624367255.8,286047000.2,N
1624367275.7,286047002.7,N
1624367295.5,286047000.2,N
1624367315.4,286047002.7,N
1624367335.2,286047002.4,N
1624367355.0,286047000.0,N
1624367355.9,286047000.0,N
1624367375.8,286047002.8,N
1624367395.6,286047002.8,N
1624367415.5,286047000.3,N
1624367435.3,286047000.6,N
1624367455.1,286047000.5,N
1624367475.9,286047001.2,N
1624367495.7,286047000.6,N
1624367515.5,286047000.3,N
1624367535.4,286047000.4,N
1624367555.2,286047001.0,N
1624367575.1,286047000.8,N
1624367576.0,286047000.8,N
1624367595.8,286047000.9,N
1624367615.6,286047000.3,N
1624367635.5,286047000.0,N
1624367655.3,286047002.1,N
1624367675.2,286047002.7,N
1624367695.9,286047001.7,N
1624367715.7,286047002.5,N
1624367735.6,286047002.1,N
1624367755.4,286046999.8,N
1624367775.2,286047000.3,N
1624367795.1,286046999.9,N
1624367796.0,286046999.9,N
1624367815.8,286047000.6,N
1624367835.7,286046999.8,N
1624367855.5,286047000.1,N
1624367875.3,286047002.8,N
1624367895.2,286047000.3,N
1624367915.0,286047001.1,N
1624367915.9,286047001.1,N
1624367935.8,286046999.9,N
1624367955.6,286047000.4,N
1624367975.4,286047000.5,N
1624367995.3,286047000.3,N
1624368015.9,286047000.4,N
1624368035.7,286047000.2,N
1624368055.5,286047001.1,N
1624368075.4,286046999.8,N
1624368095.2,286047000.3,N
1624368115.1,286047000.2,N
1624368116.0,286047000.2,N
1624368135.8,286046999.9,N
1624368155.7,286047000.0,N
1624368175.5,286047000.3,N
1624368195.3,286046999.7,N
1624368215.2,286047001.1,N
1624368235.0,286047002.1,N
1624368235.9,286047002.1,N
1624368255.8,286047002.5,Y
1624368275.6,286047000.2,P
1624368295.4,286047002.8,P
1624368315.3,286047002.5,N
1624368335.1,286047002.5,N
1624368355.9,286047002.3,N
1624368375.7,286047001.8,N
1624368395.5,286047002.4,N
1624368415.4,286047002.3,N
1624368435.2,286047002.0,N
1624368455.0,286047001.5,N
1624368456.0,286047001.5,N
1624368475.8,286047001.9,N
1624368495.6,286047004.4,Y
1624368515.5,286047000.4,P
1624368535.3,286047000.4,N
1624368555.1,286047000.1,N
1624368575.9,286047001.0,N
1624368595.7,286047000.1,N
1624368615.6,286047000.8,N
1624368635.4,286047000.6,N
1624368655.2,286047000.5,N
1624368675.1,286046998.2,Y
1624368676.0,286046998.2,P
1624368695.8,286046998.6,N
1624368715.7,286046998.3,N
1624368735.5,286046999.4,N
1624368755.3,286046994.9,Y
1624368775.2,286046995.2,P
1624368795.0,286046997.5,N
1624368795.9,286046997.5,N
1624368815.7,286046996.6,N
1624368835.6,286046997.2,N
1624368855.4,286046996.9,N
1624368875.3,286046998.2,N
1624368895.1,286047000.0,N
1624368896.0,286047000.0,N
1624368915.8,286046999.7,N
1624368935.7,286047000.1,N
1624368955.5,286047002.7,N
1624368975.3,286047002.4,N
1624368995.2,286047000.4,N
1624369015.0,286047000.3,N
1624369015.9,286047000.3,N
1624369035.8,286047000.1,N
1624369055.6,286047000.7,N
1624369075.4,286047000.4,N
1624369095.3,286047002.7,N
1624369115.1,286047002.2,N
1624369135.8,286047002.5,N
1624369155.7,286046999.8,N
1624369175.5,286047000.9,N
1624369195.4,286047000.4,N
1624369215.2,286047001.0,N
1624369235.0,286047001.0,N
1624369235.9,286047001.0,N
1624369255.8,286046998.1,N
1624369275.6,286046998.5,N
1624369295.5,286046999.0,N
1624369315.3,286046998.9,N
1624369335.1,286046998.9,N
1624369355.9,286046998.3,N
1624369375.7,286046998.8,N
1624369395.5,286047000.7,N
1624369415.4,286046999.4,N
1624369435.2,286046997.2,N
1624369455.1,286046995.3,Y
1624369456.0,286046995.3,P
1624369475.8,286046994.9,N
1624369495.6,286046998.0,N
1624369515.5,286046995.1,N
1624369535.3,286046995.8,N
1624369555.2,286046996.4,N
1624369575.9,286046995.9,N
1624369595.7,286046996.2,N
1624369615.6,286046995.7,N
1624369635.4,286046996.2,N
1624369655.2,286046995.8,N
1624369675.1,286046996.0,N
1624369676.0,286046996.0,N
1624369695.8,286046996.3,N
1624369715.7,286046996.2,Y
1624369735.5,286046998.3,P
1624369755.3,286046998.1,N
1624369775.2,286046999.1,N
1624369795.0,286047000.8,N
1624369795.9,286047000.8,N
1624369815.8,286047000.6,N
1624369835.6,286047000.7,N
1624369855.4,286047002.6,N
1624369875.3,286047003.8,N
1624369895.1,286047001.3,N
1624369915.9,286047004.0,N
1624369935.7,286047001.8,N
1624369955.5,286047003.9,N
1624369975.4,286047001.3,N
1624369995.2,286047002.1,N
1624370015.0,286047004.4,N
1624370015.9,286047004.4,N
1624370035.8,286047003.8,N
1624370055.6,286047005.6,N
1624370075.5,286047004.1,N
1624370095.3,286047004.3,N
1624370115.1,286047003.8,N
1624370135.9,286047001.7,N
1624370155.7,286047001.5,N
1624370175.5,286047001.8,N
1624370195.4,286047001.5,N
1624370215.2,286047002.0,N
1624370235.1,286047001.9,N
1624370236.0,286047001.9,N
1624370255.8,286047004.0,N
1624370275.6,286047001.7,N
1624370295.5,286047001.9,N
1624370315.3,286047004.4,N
1624370335.1,286047001.7,N
1624370355.9,286047001.3,N
1624370375.7,286047002.0,N
1624370395.6,286047002.1,N
